Погода в Пеледуе

Россия / Республика Саха (Якутия)     59°37′54″N   112°45′05″E
темп.,
°C
ветер,
м/с
пор.,
м/с
влажн.,
%
обл.,
%
осадки,
мм/ч
давл.,
гПа
погр.,
м
5 декабря, вс
вс500:00−3зюз51291100 0.1 9991008
03:00−3зюз51291100 0.7 9991099
06:00−6з61379100 0.4 10011130
09:00−7зюз61291100 0.6 10031095
12:00−7з61292100 0.8 10041400
15:00−11з61177100 1.3 10091130
18:00−15з51184100 0.1 10141047
21:00−17зюз41085100 0.1 1017869
6 декабря, пн
пн600:00−16юз3995100 0.1 1017867
03:00−16зюз4993100 0.4 1016870
06:00−16з1696100 0.2 1015427
09:00−19зсз1110079 0.3 10169
12:00−20з1110046 0.0 101828
15:00−19зюз11975 0.0 101826
18:00−25зюз1110027 0.0 10209
21:00−27юз1110040 0.0 102013
7 декабря, вт
вт700:00−27юз1110079 0.0 101915
03:00−25юз1110097 0.0 101810
06:00−17зюз1198100 0.1 101639
09:00−17зсз119974 0.3 101718
12:00−17з119883 0.1 101927
15:00−14зюз119798 0.1 101940
18:00−16юв11100100 0.0 101911
21:00−13вюв1197100 0.1 101551
8 декабря, ср
ср800:00−10в1296100 1.3 101097
03:00−7ю21296100 4.1 1005491
06:00−1юз71495100 2.2 10031128
09:00−1юз61389100 3.5 10031162
12:00−3з71587100 0.9 10051599
15:00−6зюз61386100 1.1 10091386
18:00−11з61381100 0.4 1013952
21:00−14зюз61289100 0.8 10181075
9 декабря, чт
чт900:00−17зюз61292100 0.3 10211075
03:00−18зюз61192100 0.6 10231044
06:00−18зюз51194100 0.4 10251025
09:00−19зюз51193100 0.7 1026927
12:00−19юз51193100 0.3 1028863
15:00−18юз61188100 0.4 1028834
18:00−20юз51292100 0.0 1030613
21:00−19юз51292100 0.1 1030674